Flag for Switzerland Weather past 2 weeks in Winterthur, Switzerland

Now
48 °F

Broken clouds.


Feels Like: 43 °F
Forecast: 36 / 46 °F
Wind: 14 mph from Southwest

Location: Zurich-Kloten

Current Time: Mar 1, 2015 at 6:16:12 PM

Latest Report: Mar 1, 2015 at 5:20 PM


Visibility: N/A

Pressure: 29.86 "Hg

Humidity: 82%

Dew point: 43 °F

Location of WinterthurLocation

Historic Weather in Winterthur — Graph

°F

Winterthur temperature yesterday

Maximum temperature yesterday: 41 °F (at 1:20 PM)
Minimum temperature yesterday: 28 °F (at 10:50 PM)
Average temperature yesterday: 36 °F

Past Weeks' High & Low Weather Summary

 TemperatureHumidityPressure
High52 °F (Feb 20, 1:50 PM)100% (Feb 14, 9:50 PM)30.69 "Hg (Feb 14, 9:50 PM)
Low23 °F (Feb 20, 7:20 AM)35% (Feb 20, 3:20 PM)29.53 "Hg (Feb 21, 10:50 AM)
Average34 °F85%30.03 "Hg
* Reported Feb 14 5:20 PM — Mar 1 5:20 PM, Winterthur, Weather by CustomWeather, © 2015

Note: Actual official high and low records may vary slightly from our data, if they occured in-between our weather recording intervals... More about our weather records

Advertising

Winterthur weather history for previous 24 hours

 ConditionsComfort  
Time TempWeatherWind HumidityBarometerVisibility
5:20 PM
Sun, Mar 1
48 °FBroken clouds.14 mph82%29.86 "HgN/A
4:50 PM48 °FBroken clouds.14 mph82%29.86 "HgN/A
4:20 PM48 °FSprinkles. Broken clouds.14 mph82%29.86 "HgN/A
3:50 PM48 °FBroken clouds.9 mph76%29.86 "HgN/A
3:20 PM46 °FBroken clouds.7 mph87%29.86 "HgN/A
2:50 PM45 °FSprinkles. Partly sunny.9 mph87%29.86 "HgN/A
2:20 PM45 °FPartly sunny.10 mph87%29.86 "HgN/A
1:50 PM45 °FPartly sunny.12 mph81%29.89 "HgN/A
1:20 PM45 °FScattered showers. Partly sunny.14 mph81%29.89 "HgN/A
12:50 PM45 °FScattered showers. Partly sunny.15 mph81%29.89 "HgN/A
12:20 PM43 °FScattered showers. Partly sunny.14 mph87%29.89 "HgN/A
11:50 AM43 °FPartly sunny.14 mph81%29.89 "HgN/A
11:20 AM41 °FPartly sunny.10 mph87%29.92 "HgN/A
10:50 AM39 °FLight rain. Broken clouds.10 mph93%29.92 "HgN/A
10:20 AM37 °FLight rain. Broken clouds.14 mph93%29.92 "Hg4 mi
9:50 AM37 °FLight rain. Broken clouds.12 mph93%29.92 "Hg4 mi
9:20 AM36 °FRain. Broken clouds.13 mph100%29.92 "Hg2 mi
8:50 AM36 °FLight rain. Broken clouds.14 mph93%29.92 "Hg4 mi
8:20 AM36 °FLight rain. Partly sunny.13 mph93%29.92 "Hg4 mi
7:50 AM34 °FRain. Partly sunny.10 mph93%29.92 "Hg3 mi
7:20 AM34 °FRain. Partly sunny.9 mph93%29.92 "Hg3 mi
6:50 AM36 °FRain. Passing clouds.10 mph87%29.92 "Hg4 mi
6:20 AM37 °FLight rain. Partly cloudy.10 mph81%29.95 "Hg6 mi
5:50 AM37 °FLight rain. Partly cloudy.8 mph81%29.95 "Hg6 mi
5:20 AM37 °FPassing clouds.8 mph75%29.95 "HgN/A
4:50 AM37 °FPassing clouds.7 mph75%29.95 "HgN/A
4:20 AM37 °FPassing clouds.9 mph75%29.95 "HgN/A
3:50 AM36 °FPartly cloudy.7 mph81%29.95 "HgN/A
3:20 AM32 °FClear.6 mph87%29.95 "Hg10 mi
2:50 AM32 °FClear.5 mph93%29.95 "Hg10 mi
2:20 AM30 °FClear.7 mph93%29.98 "Hg10 mi
1:50 AM30 °FClear.8 mph93%29.98 "Hg10 mi
12:50 AM30 °FClear.5 mph93%30.01 "Hg10 mi
12:20 AM30 °FClear.2 mph93%30.01 "Hg10 mi
11:50 PM
Sat, Feb 28
30 °FClear.2 mph100%30.01 "Hg10 mi
11:20 PM30 °FClear.3 mph100%30.04 "Hg10 mi
10:50 PM28 °FClear.5 mph100%30.04 "Hg10 mi
10:20 PM30 °FClear.No wind100%30.04 "Hg10 mi
9:50 PM30 °FClear.2 mph93%30.07 "Hg10 mi
9:20 PM30 °FClear.2 mph100%30.07 "Hg10 mi
8:50 PM32 °FClear.1 mph93%30.07 "Hg10 mi
8:20 PM34 °FPassing clouds.2 mph87%30.07 "HgN/A
7:50 PM36 °FPassing clouds.1 mph87%30.07 "HgN/A
7:20 PM36 °FPassing clouds.2 mph87%30.07 "HgN/A
6:50 PM36 °FPassing clouds.2 mph87%30.07 "HgN/A
6:20 PM39 °FPassing clouds.No wind75%30.07 "HgN/A
Weather by CustomWeather, © 2015

See weather overviewHow to use our weather pages